Location: Stara Lesna
(49.1528°N, 20.2911°E)
Time: 17:20:03
(UTC+02:00)

RESURS DK-1 - Pass Details

Date: 13 July 2020
Orbit: 555 x 562 km, 69.9° (Epoch: 11 August)

Event Time Altitude Azimuth Distance (km) Brightness Sun altitude
Rises 00:21:50 0° 323° (NW) 2,755 6.9 -18.9°
Reaches altitude 10° 00:24:09 10° 315° (NW) 1,856 5.7 -18.9°
Maximum altitude 00:27:58 36° 248° (WSW) 896 3.2 -19.0°
Enters shadow 00:28:36 34° 227° (SW) 936 3.1 -19.0°
